Location: Most
(50.5133°N, 13.6207°E)
Time: 01:25:16
(UTC+02:00)

ISS - Pass Details

Date: 18 September 2021
Orbit: 417 x 423 km, 51.6° (Epoch: 22 October)

Event Time Altitude Azimuth Distance (km) Brightness Sun altitude
Rises 20:45:21 0° 229° (SW) 2,354 0.4 -15.2°
Reaches altitude 10° 20:47:30 10° 222° (SW) 1,495 -0.7 -15.5°
Maximum altitude 20:50:40 40° 152° (SSE) 635 -3.3 -16.0°
Enters shadow 20:50:59 39° 135° (SE) 650 -3.3 -16.0°
